Clermont County, Batavia, OH

5:46 AM EST on December 08, 2019 (GMT -0500)
Clermont County, Batavia

Weather History for KI69 - October, 2019

Change the Weather History Date:

Monday, October 21, 2019

  Actual Average (KLUK) Record (KLUK)
Temperature  
Mean Temperature 65 °F -  
Max Temperature 75 °F 65 °F 83 °F (1979)
Min Temperature 55 °F 43 °F 25 °F (1974)
Growing Degree Days 15 (Base 50)    
Moisture  
Dew Point 58 °F    
Average Humidity 87    
Maximum Humidity 99    
Minimum Humidity 57    
Precipitation  
Precipitation 0.12 in - - ()
Sea Level Pressure  
Sea Level Pressure 29.85 in    
Wind  
Wind Speed 5 mph (SSE)    
Max Wind Speed 16 mph    
Max Gust Speed 28 mph    
Visibility 10 miles    
Events Rain    
Averages and records for this station are not official NWS values.
T = Trace of Precipitation, MM = Missing Value Source: NWS Daily Summary

Daily Weather History Graph

Daily Weather History Graph

Search for Another Location

Airport or City:

Astronomy

Oct. 21, 2019 Rise Set
Actual Time 7:52 AM EDT 6:50 PM EDT
Civil Twilight 7:25 AM EDT 7:17 PM EDT
Nautical Twilight 6:54 AM EDT 7:48 PM EDT
Astronomical Twilight 6:23 AM EDT 8:19 PM EDT
Moon 12:01 AM EDT (10/21) 3:08 PM EDT (10/21)
Length of Visible Light 11h 51m
Length of Day
10h 57m
Waning Gibbous, 48% of the Moon is Illuminated
Oct 21
Waning Gibbous
Oct 27
New
Nov 4
First Quarter
Nov 12
Full
Nov 19
Last Quarter

Hourly Weather History & Observations

Time (EDT) Temp. Dew Point Humidity Pressure Visibility Wind Dir Wind Speed Gust Speed Precip Events Conditions
12:15 AM 58.1 °F 56.5 °F 94% 29.98 in 10.0 mi Calm Calm - N/A   Clear
12:35 AM 57.7 °F 56.5 °F 96% 29.97 in 10.0 mi Calm Calm - N/A   Clear
12:58 AM 57.2 °F 56.5 °F 97% 29.97 in 10.0 mi Calm Calm - N/A   Clear
1:16 AM 57.2 °F 56.5 °F 97% 29.97 in 10.0 mi Calm Calm - N/A   Clear
1:36 AM 56.5 °F 56.3 °F 99% 29.97 in 10.0 mi Calm Calm - N/A   Clear
1:55 AM 56.3 °F 55.9 °F 99% 29.96 in 10.0 mi Calm Calm - N/A   Clear
2:15 AM 55.9 °F 55.8 °F 99% 29.96 in 10.0 mi Calm Calm - N/A   Clear
2:38 AM 55.9 °F 55.8 °F 99% 29.95 in 7.0 mi Calm Calm - N/A   Clear
2:56 AM 55.8 °F 55.6 °F 99% 29.94 in 7.0 mi Calm Calm - N/A   Clear
3:15 AM 55.8 °F 55.6 °F 99% 29.93 in 10.0 mi Calm Calm - N/A   Clear
3:35 AM 55.8 °F 55.6 °F 99% 29.92 in 10.0 mi Calm Calm - N/A   Clear
3:55 AM 55.6 °F 55.4 °F 99% 29.91 in 10.0 mi SE 3.5 mph - N/A   Clear
4:18 AM 55.9 °F 55.8 °F 99% 29.91 in 10.0 mi SE 4.6 mph - N/A   Scattered Clouds
4:36 AM 55.9 °F 55.6 °F 99% 29.91 in 10.0 mi ESE 3.5 mph - N/A   Mostly Cloudy
4:55 AM 56.8 °F 56.5 °F 99% 29.91 in 10.0 mi SE 5.8 mph - N/A   Overcast
5:15 AM 56.8 °F 56.5 °F 99% 29.92 in 10.0 mi SE 5.8 mph - N/A   Mostly Cloudy
5:35 AM 56.7 °F 56.3 °F 99% 29.91 in 10.0 mi ESE 3.5 mph - N/A   Scattered Clouds
5:58 AM 56.3 °F 55.9 °F 99% 29.91 in 10.0 mi ESE 5.8 mph - N/A   Mostly Cloudy
6:16 AM 56.3 °F 56.1 °F 99% 29.90 in 10.0 mi SE 5.8 mph - N/A   Mostly Cloudy
6:35 AM 56.3 °F 55.9 °F 99% 29.91 in 10.0 mi SE 6.9 mph - N/A   Scattered Clouds
6:55 AM 56.5 °F 56.1 °F 99% 29.91 in 10.0 mi SE 4.6 mph - N/A   Scattered Clouds
7:20 AM 56.3 °F 55.8 °F 98% 29.91 in 10.0 mi ESE 3.5 mph - N/A   Mostly Cloudy
7:38 AM 56.5 °F 56.1 °F 99% 29.91 in 10.0 mi ESE 3.5 mph - N/A   Mostly Cloudy
7:56 AM 56.8 °F 56.3 °F 98% 29.90 in 10.0 mi SE 4.6 mph - N/A   Mostly Cloudy
8:15 AM 57.2 °F 56.5 °F 97% 29.90 in 10.0 mi SE 6.9 mph - N/A   Overcast
8:35 AM 57.6 °F 56.7 °F 97% 29.89 in 10.0 mi SSE 8.1 mph - N/A   Mostly Cloudy
8:59 AM 58.1 °F 57.0 °F 96% 29.90 in 10.0 mi SE 9.2 mph - N/A   Mostly Cloudy
9:18 AM 58.5 °F 57.2 °F 96% 29.88 in 10.0 mi ESE 8.1 mph - N/A   Scattered Clouds
9:36 AM 59.0 °F 57.2 °F 94% 29.86 in 10.0 mi ESE 9.2 mph - N/A   Scattered Clouds
9:55 AM 59.4 °F 57.2 °F 93% 29.87 in 10.0 mi SE 8.1 mph 18.4 mph N/A   Scattered Clouds
10:15 AM 60.6 °F 57.9 °F 91% 29.87 in 10.0 mi SE 9.2 mph - N/A   Scattered Clouds
10:39 AM 63.3 °F 58.5 °F 84% 29.85 in 10.0 mi SE 9.2 mph 16.1 mph N/A   Scattered Clouds
10:57 AM 64.6 °F 58.5 °F 80% 29.84 in 10.0 mi SE 9.2 mph - N/A   Scattered Clouds
11:16 AM 65.3 °F 57.6 °F 76% 29.83 in 10.0 mi SSE 4.6 mph 20.7 mph N/A   Scattered Clouds
11:35 AM 66.0 °F 58.1 °F 76% 29.82 in 10.0 mi SE 4.6 mph 17.3 mph N/A   Scattered Clouds
11:55 AM 68.2 °F 58.5 °F 71% 29.81 in 10.0 mi SSE 12.7 mph 17.3 mph N/A   Clear
12:19 PM 68.2 °F 58.5 °F 71% 29.80 in 10.0 mi SE 10.4 mph 19.6 mph N/A   Scattered Clouds
12:37 PM 68.5 °F 58.1 °F 69% 29.81 in 10.0 mi South 13.8 mph 19.6 mph N/A   Mostly Cloudy
12:55 PM 66.9 °F 59.0 °F 76% 29.81 in 10.0 mi South 9.2 mph 17.3 mph N/A Rain Light Rain
1:15 PM 67.3 °F 59.0 °F 75% 29.82 in 10.0 mi South 6.9 mph 16.1 mph N/A   Overcast
1:35 PM 69.8 °F 59.5 °F 70% 29.81 in 10.0 mi South 10.4 mph 16.1 mph N/A   Overcast
1:59 PM 69.3 °F 59.0 °F 70% 29.80 in 10.0 mi South 9.2 mph - N/A   Mostly Cloudy
2:17 PM 70.7 °F 59.4 °F 67% 29.77 in 10.0 mi SSW 9.2 mph 18.4 mph N/A   Overcast
2:35 PM 72.5 °F 59.7 °F 64% 29.76 in 10.0 mi SSE 12.7 mph 23.0 mph N/A   Overcast
2:55 PM 73.6 °F 59.7 °F 62% 29.75 in 10.0 mi South 12.7 mph 24.2 mph N/A   Mostly Cloudy
3:15 PM 74.5 °F 59.5 °F 60% 29.75 in 10.0 mi South 13.8 mph 23.0 mph N/A   Scattered Clouds
3:39 PM 75.2 °F 59.0 °F 57% 29.75 in 10.0 mi SSW 15.0 mph 27.6 mph N/A   Mostly Cloudy
3:57 PM 75.4 °F 59.4 °F 57% 29.75 in 10.0 mi SSW 10.4 mph 18.4 mph N/A   Mostly Cloudy
4:15 PM 75.2 °F 59.9 °F 59% 29.75 in 10.0 mi South 11.5 mph 18.4 mph N/A   Mostly Cloudy
4:35 PM 74.7 °F 59.7 °F 60% 29.76 in 10.0 mi SSW 6.9 mph - N/A   Overcast
4:55 PM 74.3 °F 59.4 °F 60% 29.76 in 10.0 mi SSW 4.6 mph - N/A   Overcast
5:19 PM 72.5 °F 60.4 °F 66% 29.76 in 10.0 mi WSW 8.1 mph - N/A Rain Light Rain
5:37 PM 67.5 °F 59.5 °F 76% 29.78 in 7.0 mi SW 10.4 mph 25.3 mph 0.01 in Rain Rain
5:55 PM 64.0 °F 60.1 °F 87% 29.80 in 5.0 mi SW 16.1 mph 26.5 mph 0.04 in Rain Rain
6:15 PM 62.6 °F 58.5 °F 86% 29.79 in 10.0 mi SSW 9.2 mph - N/A Rain Light Rain
6:36 PM 62.8 °F 60.8 °F 93% 29.79 in 10.0 mi South 6.9 mph - N/A Rain Light Rain
6:59 PM 62.8 °F 61.3 °F 95% 29.77 in 10.0 mi South 8.1 mph - 0.03 in Rain Light Rain
7:17 PM 62.8 °F 60.8 °F 93% 29.78 in 10.0 mi South 6.9 mph - N/A Rain Light Rain
7:55 PM 61.3 °F 59.0 °F 92% 29.79 in 10.0 mi South 5.8 mph - 0.01 in Rain Rain
8:15 PM 60.8 °F 59.0 °F 94% 29.80 in 10.0 mi South 9.2 mph - 0.02 in Rain Rain
8:39 PM 60.8 °F 59.2 °F 94% 29.79 in 10.0 mi South 10.4 mph 16.1 mph 0.04 in Rain Rain
8:57 PM 61.3 °F 59.5 °F 94% 29.79 in 10.0 mi South 10.4 mph 16.1 mph 0.04 in Rain Rain
9:15 PM 61.2 °F 59.4 °F 94% 29.80 in 10.0 mi South 10.4 mph 18.4 mph N/A   Light Drizzle
9:35 PM 61.2 °F 59.2 °F 93% 29.79 in 10.0 mi South 10.4 mph 19.6 mph N/A   Mostly Cloudy
9:55 PM 61.3 °F 59.0 °F 92% 29.79 in 10.0 mi South 11.5 mph 16.1 mph N/A   Mostly Cloudy
10:18 PM 61.3 °F 59.0 °F 92% 29.80 in 10.0 mi SSW 10.4 mph 16.1 mph N/A   Scattered Clouds
10:37 PM 61.3 °F 58.8 °F 91% 29.80 in 10.0 mi South 8.1 mph 16.1 mph N/A   Mostly Cloudy
10:55 PM 61.3 °F 59.0 °F 92% 29.79 in 10.0 mi South 10.4 mph - N/A   Overcast
11:15 PM 61.3 °F 59.0 °F 92% 29.81 in 10.0 mi SSW 9.2 mph 17.3 mph N/A   Scattered Clouds
11:35 PM 61.2 °F 58.8 °F 92% 29.80 in 10.0 mi SSW 9.2 mph 17.3 mph N/A   Mostly Cloudy
11:58 PM 61.3 °F 58.6 °F 91% 29.80 in 10.0 mi SSW 8.1 mph - N/A   Overcast